FW8721 Weather Reports


time (UTC)temp
F
wind
direction
speed
knots
gust
knots
rain 1hr
in
rain 24hr
in
rain mn
in
humidity
%
barometer
mb
20260505070557 39 238 13.0 23.5 0.00 0.14 0.00 94 1008.0
20260505065558 39 287 11.3 25.2 0.00 0.16 0.00 94 1007.9
20260505064557 39 261 9.6 20.9 0.00 0.16 0.00 93 1007.6
20260505063600 39 241 12.2 24.3 0.00 0.16 0.00 93 1007.5
20260505062554 40 307 12.2 26.9 0.00 0.16 0.00 93 1007.1
20260505061557 40 229 13.9 23.5 0.00 0.16 0.00 93 1007.0
20260505061051 40 176 9.6 24.3 0.00 0.16 0.00 92 1007.0
20260505060542 40 260 12.2 24.3 0.00 0.16 0.00 93 1006.8
20260505055601 40 243 13.9 23.5 0.00 0.17 0.00 92 1006.6
20260505055100 40 243 14.8 22.6 0.00 0.17 0.00 92 1006.6
20260505054554 40 248 13.0 25.2 0.00 0.17 0.00 92 1006.3
20260505054041 40 233 13.0 25.2 0.00 0.17 0.00 92 1006.3
20260505053112 40 307 12.2 23.5 0.00 0.17 0.00 92 1006.2
20260505051607 40 238 11.3 21.7 0.00 0.17 0.00 93 1006.0
20260505051049 40 283 11.3 21.7 0.00 0.17 0.00 92 1005.9
20260505041059 41 265 13.9 25.2 0.00 0.17 0.00 89 1005.3
20260505040543 41 207 13.9 26.9 0.00 0.17 0.00 89 1005.2
20260505035553 42 237 12.2 26.1 0.00 0.17 0.00 89 1005.2
20260505035054 42 354 13.9 26.1 0.00 0.17 0.00 88 1005.2
20260505034549 42 250 11.3 25.2 0.00 0.17 0.00 88 1005.3
20260505033548 42 260 12.2 20.9 0.00 0.17 0.00 88 1005.2
20260505032547 42 223 13.0 26.9 0.00 0.17 0.00 88 1005.1
20260505031559 42 239 13.0 24.3 0.00 0.17 0.00 88 1004.8
20260505031053 42 256 12.2 26.9 0.00 0.17 0.00 88 1004.5
20260505030131 42 202 12.2 25.2 0.00 0.17 0.00 87 1004.6
20260505025557 42 243 13.9 24.3 0.00 0.17 0.17 86 1004.4
20260505024606 43 207 13.9 26.9 0.00 0.17 0.17 85 1004.2
20260505023552 42 240 14.8 26.1 0.00 0.17 0.17 85 1004.0
20260505022601 42 253 14.8 25.2 0.00 0.17 0.17 84 1004.2
20260505021602 42 253 12.2 26.9 0.00 0.17 0.17 83 1003.9
20260505020555 43 243 13.9 25.2 0.00 0.17 0.17 82 1003.6
20260505015047 43 239 15.6 25.2 0.00 0.17 0.17 81 1003.6
20260505014055 43 224 15.6 27.8 0.00 0.17 0.17 81 1003.6
20260505013548 43 211 15.6 26.9 0.00 0.17 0.17 80 1003.6
20260505012554 44 262 13.0 26.9 0.00 0.17 0.17 77 1003.5
20260505012047 44 212 13.9 26.9 0.00 0.17 0.17 77 1003.3
20260505011111 44 285 13.0 25.2 0.00 0.17 0.17 77 1003.3
20260505010105 44 202 14.8 30.4 0.00 0.17 0.17 78 1003.3
20260505005557 44 225 14.8 30.4 0.00 0.18 0.17 78 1003.2
20260505005050 44 21 15.6 30.4 0.00 0.18 0.17 76 1003.0
20260505004057 44 210 16.5 33.0 0.00 0.18 0.17 74 1003.2
20260505003108 44 156 20.0 29.5 0.00 0.18 0.17 73 1003.2
20260505002052 44 182 15.6 28.7 0.00 0.18 0.17 73 1003.0
20260505001058 43 225 13.9 25.2 0.00 0.18 0.17 75 1002.7
20260505000057 44 281 15.6 27.8 0.00 0.18 0.17 74 1002.5
20260504235052 43 266 12.2 22.6 0.00 0.20 0.17 74 1002.4
20260504234053 43 227 15.6 26.9 0.00 0.20 0.17 73 1002.3
20260504233105 43 197 11.3 23.5 0.00 0.20 0.17 70 1002.0
20260504232059 44 245 10.4 21.7 0.00 0.20 0.17 69 1002.1
20260504231553 44 258 10.4 21.7 0.00 0.20 0.17 67 1002.2
20260504230549 44 249 10.4 20.9 0.00 0.20 0.17 68 1002.0
20260504230050 44 291 11.3 20.9 0.00 0.20 0.17 67 1002.1
20260504225103 44 238 12.2 25.2 0.00 0.28 0.17 69 1002.1
20260504224048 44 253 9.6 22.6 0.00 0.28 0.17 71 1002.1
20260504223107 44 260 10.4 21.7 0.00 0.28 0.17 72 1002.1
20260504222548 44 250 10.4 20.0 0.00 0.28 0.17 72 1002.0
20260504221608 44 247 11.3 20.0 0.00 0.28 0.17 72 1001.9
20260504220558 44 243 10.4 21.7 0.00 0.28 0.17 74 1001.8
20260504215556 44 229 12.2 20.0 0.00 0.39 0.17 74 1001.9
20260504215056 44 252 11.3 20.0 0.00 0.39 0.17 73 1001.8
20260504214055 44 266 11.3 24.3 0.00 0.39 0.17 74 1001.8
20260504213554 44 265 12.2 23.5 0.00 0.39 0.17 74 1001.7
20260504213114 44 257 13.0 23.5 0.00 0.39 0.17 74 1001.7
20260504212105 44 243 13.0 23.5 0.00 0.39 0.17 76 1001.4
20260504211057 45 266 12.2 23.5 0.00 0.39 0.17 76 1001.3
20260504210058 44 253 13.9 25.2 0.00 0.39 0.17 77 1000.7
20260504204611 44 295 13.9 25.2 0.00 0.48 0.17 78 1000.6
20260504203555 43 220 13.9 26.1 0.00 0.48 0.17 81 1000.4
20260504203054 42 261 13.0 24.3 0.00 0.48 0.17 82 1000.7
20260504202548 42 260 12.2 26.9 0.00 0.48 0.17 83 1000.5
20260504201544 42 270 13.0 25.2 0.00 0.48 0.17 85 1000.3
20260504200549 42 250 11.3 24.3 0.01 0.48 0.17 88 1000.3
20260504195555 41 254 11.3 20.9 0.01 0.49 0.17 91 999.8
20260504195051 41 237 11.3 25.2 0.01 0.49 0.17 92 999.6
20260504194549 40 268 13.9 25.2 0.01 0.49 0.17 94 999.5
20260504193553 40 259 13.0 21.7 0.01 0.49 0.17 96 999.6
20260504192605 40 277 11.3 22.6 0.01 0.49 0.17 98 999.4
20260504192044 40 268 13.0 23.5 0.01 0.49 0.17 98 999.2
20260504191103 39 221 13.9 22.6 0.00 0.48 0.16 99 999.2
20260504185055 37 259 13.9 24.3 0.00 0.48 0.16 99 998.7
20260504184048 37 264 12.2 20.9 0.00 0.48 0.16 99 998.8
20260504183111 37 291 12.2 24.3 0.00 0.48 0.16 99 998.7
20260504182555 37 270 11.3 22.6 0.00 0.48 0.16 100 998.5
20260504181557 36 253 14.8 23.5 0.00 0.48 0.16 100 998.6
20260504180558 36 290 13.0 23.5 0.00 0.48 0.16 99 998.5
20260504175554 36 294 13.9 25.2 0.00 0.48 0.16 100 998.0
20260504174049 36 356 13.9 26.9 0.00 0.48 0.16 100 997.6
20260504173109 36 291 13.9 27.8 0.00 0.48 0.16 100 997.4
20260504172103 35 281 15.6 26.9 0.00 0.48 0.16 100 997.3
20260504171057 35 214 13.0 24.3 0.00 0.48 0.16 100 997.3
20260504170556 35 277 15.6 24.3 0.00 0.48 0.16 100 996.9
20260504151057 33 268 14.8 24.3 0.00 0.48 0.16 99 993.9
20260504140554 33 353 15.6 25.2 0.02 0.48 0.16 99 991.8
20260504130602 32 214 11.3 23.5 0.02 0.46 0.14 99 989.5
20260504120105 33 245 10.4 19.1 0.02 0.45 0.13 99 986.9
20260504110559 33 290 11.3 22.6 0.02 0.44 0.12 99 984.0
20260504100544 32 340 9.6 18.2 0.01 0.43 0.10 98 980.9
20260504081101 33 282 6.1 10.4 0.04 0.39 0.06 98 975.9